RH
43 42 39 39 38 36 36 36 34 33 32 33 38 54 49 42 39 43 74 70 68 62 72 63 74 78 91 88 95 97 100 100 89 87 71 64 65 62 52 47 42 41 38 41 40 33 30 28 26
44 41 40 38 37 36 36 34 33 31 30 30 30 35 50 53 42 30 37 51 60 58 54 49 48 59 58 69 74 72 70 83 87 100 92 71 70 72 67 54 47 44 44 45 46 41 34 32 31
40 38 37 35 34 32 31 29 28 26 26 25 24 23 24 27 26 24 25 31 36 43 46 45 38 39 46 49 58 64 56 57 75 82 100 99 80 80 77 65 58 56 52 46 42 44 40 39 36
33 32 31 29 28 27 26 26 25 23 22 21 20 19 18 18 18 20 20 19 22 29 34 38 36 33 37 40 48 58 65 53 55 74 85 100 100 87 86 80 58 58 55 49 45 42 41 42 40
33 31 29 27 27 27 27 26 23 22 20 19 19 15 14 13 14 15 17 18 17 19 24 27 31 31 29 35 40 50 64 62 55 61 69 78 100 100 91 84 74 53 49 47 46 47 47 45 43
34 32 31 31 30 30 27 25 22 19 19 16 16 15 14 13 11 13 14 15 16 16 16 18 21 25 27 26 31 32 36 48 50 55 69 72 82 100 100 94 83 80 71 67 53 50 50 49 54
36 34 35 35 33 29 24 22 21 18 18 16 16 16 15 13 12 12 13 14 16 15 14 14 14 16 20 22 24 26 28 30 37 46 60 79 79 98 100 100 95 89 92 98 89 62 77 94 86
36 35 35 36 34 26 21 19 18 19 19 14 14 16 16 14 14 14 14 12 13 17 14 13 16 29 19 16 18 21 22 24 26 32 38 62 85 90 100 100 100 98 97 100 100 99 100 99 86
32 32 32 33 34 23 20 17 18 19 18 16 13 18 16 14 17 16 17 16 12 12 16 15 13 15 28 45 46 14 15 18 22 25 29 41 68 85 100 100 100 100 100 100 100 100 100 100 96
35 35 26 27 25 21 18 17 16 19 18 15 16 15 16 14 16 17 16 18 17 16 15 15 14 12 13 16 68 89 24 13 18 27 30 32 41 75 84 100 100 100 100 100 100 100 100 100 100
28 27 24 22 19 18 17 17 16 18 18 12 18 16 16 16 16 19 21 16 16 15 16 16 17 13 12 13 50 85 100 37 32 18 30 30 33 51 86 96 100 100 100 100 100 100 100 100 100
26 25 21 20 18 18 18 16 16 16 18 11 16 18 20 18 17 18 19 18 14 12 13 16 18 17 16 13 18 81 100 100 98 31 21 27 32 36 58 90 100 100 100 100 100 100 100 100 100
24 25 21 20 19 18 18 18 16 17 16 16 18 19 19 19 20 18 18 18 17 13 11 14 16 18 16 13 12 41 75 91 100 100 61 30 27 31 40 72 98 100 100 100 100 100 100 100 100
35 26 25 22 22 19 19 21 20 22 15 18 18 20 19 17 20 20 18 17 16 14 12 12 12 12 14 11 10 12 22 53 99 87 100 61 31 25 33 50 82 100 100 100 100 100 100 100 100
51 51 48 46 32 20 19 22 22 23 19 19 18 20 19 18 17 18 18 17 14 16 14 12 10 9 9 9 8 9 9 11 68 90 98 100 76 36 22 39 63 95 100 100 100 100 100 100 100
58 50 53 64 49 35 35 42 42 26 25 24 22 24 28 27 26 26 22 20 17 15 12 10 8 6 5 5 6 6 8 9 13 37 76 100 93 52 28 30 45 77 100 100 100 100 100 100 100
71 61 57 68 60 40 38 45 64 41 44 48 37 37 31 32 30 27 24 16 13 10 11 9 6 4 3 4 4 5 6 10 76 70 100 81 100 83 47 31 39 65 91 100 100 100 100 100 100
96 68 64 64 82 47 39 38 54 47 40 44 43 39 35 32 30 26 22 13 10 11 11 7 4 3 3 3 2 4 5 18 100 100 96 99 100 89 79 43 39 50 76 100 100 100 100 100 100
62 73 67 74 72 46 41 44 56 47 41 43 39 35 28 23 19 16 13 11 11 11 15 6 4 3 2 2 2 3 4 39 100 100 87 96 100 100 65 48 34 40 60 93 100 100 100 100 100
40 47 61 65 56 36 40 55 68 52 43 37 37 34 28 25 23 20 14 11 11 15 70 33 30 8 5 3 2 3 5 27 100 85 74 100 97 65 36 33 35 40 60 82 100 100 100 100 100
40 35 45 44 50 42 35 42 46 54 49 34 34 34 30 29 26 19 14 11 12 38 100 100 97 53 24 9 4 6 10 17 38 95 100 100 96 100 78 41 34 43 62 80 94 100 100 100 100
40 38 34 36 35 34 38 41 46 58 45 47 40 38 36 31 29 25 18 11 12 82 100 100 100 100 96 82 97 100 100 100 100 100 100 100 90 100 100 100 87 52 61 73 100 98 100 100 100
22 22 24 27 31 30 33 35 40 42 46 52 46 39 42 38 33 24 17 13 14 84 100 100 100 100 100 100 100 100 100 100 100 100 100 100 94 92 100 100 100 100 92 86 98 92 100 100 100
29 26 22 19 21 29 36 33 39 37 31 31 38 39 38 37 32 23 20 15 14 45 100 100 100 100 100 100 100 100 100 100 100 100 100 100 100 93 100 100 100 100 100 100 100 100 100 100 100
41 35 29 26 22 22 36 48 65 48 50 37 30 32 35 38 40 33 23 17 15 15 99 100 100 100 100 100 100 100 100 100 100 100 100 99 99 98 100 100 100 100 100 100 100 100 100 100 100
37 36 28 25 21 21 20 32 55 57 62 66 57 39 33 33 38 34 25 23 18 14 88 100 100 100 100 100 100 100 100 100 100 100 100 100 100 100 100 100 100 100 100 100 100 100 100 100 100
32 33 40 33 28 26 23 28 35 34 30 34 46 51 43 36 38 29 28 24 21 14 80 100 100 100 100 100 100 100 100 89 98 100 100 100 100 100 100 95 100 100 100 100 100 100 100 100 100
31 31 32 33 29 25 29 37 41 40 33 31 32 43 46 40 36 29 28 27 26 17 52 100 100 100 100 100 100 100 100 100 100 100 97 100 100 94 84 97 100 100 100 100 100 100 100 100 90
23 26 30 32 32 33 34 40 48 49 47 42 36 41 49 45 37 31 32 27 25 23 23 100 100 100 100 100 100 100 100 94 100 95 100 75 73 100 100 100 100 100 95 100 99 93 89 93 100
22 21 23 29 32 32 39 38 51 61 59 50 48 40 42 48 40 33 25 28 23 25 20 67 100 100 100 100 100 100 100 100 100 100 100 100 95 100 100 100 100 100 100 99 92 87 100 100 100
Wind_Speed
36 37 37 37 37 37 37 41 42 43 45 47 49 49 46 44 47 43 48 52 51 49 48 46 44 42 41 39 38 35 33 30 27 25 24 25 24 23 23 22 20 19 18 16 15 16 17 17 16
36 37 37 37 37 37 37 40 43 42 44 45 47 48 52 51 48 46 51 54 54 53 50 51 49 46 44 43 42 40 37 34 30 29 28 26 26 25 25 24 23 21 20 19 18 19 19 19 19
39 38 39 39 40 39 39 42 44 44 45 45 47 47 49 48 48 47 51 55 56 55 53 53 51 51 50 48 47 46 42 38 35 32 31 31 29 27 26 26 25 23 23 23 19 21 19 20 21
41 40 40 41 41 41 41 43 44 45 45 47 47 48 50 47 47 48 50 52 54 57 57 54 54 53 53 52 52 50 48 44 40 37 35 33 33 31 30 28 26 25 24 22 20 20 21 22 24
42 42 42 43 42 41 42 43 44 45 45 45 44 46 49 47 43 47 50 53 53 55 57 58 57 57 55 55 57 56 54 50 46 43 40 37 35 35 33 31 29 25 23 23 22 23 23 24 25
43 43 42 42 43 42 42 43 45 45 44 44 44 45 46 43 43 46 48 51 54 57 57 58 57 57 59 58 57 57 57 55 52 49 45 43 40 37 38 36 33 29 26 25 25 24 25 26 27
46 45 44 44 44 43 42 44 45 45 44 43 45 47 48 43 42 45 50 52 51 53 56 55 58 58 58 59 58 58 59 58 57 54 51 48 45 41 38 39 37 34 31 27 26 26 26 29 29
48 46 47 48 48 47 46 46 47 46 44 46 47 49 49 42 41 44 50 53 55 51 53 55 53 53 58 58 59 59 60 59 60 59 57 54 51 46 43 41 40 37 32 29 28 28 30 31 31
47 47 49 49 49 50 49 48 49 47 48 48 47 49 49 42 39 41 43 46 49 48 51 54 52 52 50 46 50 60 61 63 60 61 61 59 56 53 47 44 41 41 37 33 30 32 33 31 29
44 45 50 50 50 51 51 49 51 50 51 52 48 51 49 47 42 43 43 44 42 42 47 50 50 55 53 55 50 50 59 61 61 63 63 63 61 58 54 47 43 41 40 36 34 34 33 31 29
43 47 50 51 50 51 53 53 53 55 57 53 51 49 48 46 46 44 46 48 47 45 45 47 47 51 54 56 57 56 56 57 61 63 63 64 66 63 59 54 47 44 42 39 35 37 36 33 31
43 50 48 51 51 51 53 53 55 56 62 50 50 48 50 50 50 49 49 52 50 49 49 49 49 52 53 62 56 63 58 60 59 63 63 65 67 67 63 60 52 46 42 39 36 38 38 36 32
41 47 46 51 53 52 53 51 52 52 60 52 50 49 52 52 54 51 53 54 56 54 48 49 52 54 59 61 69 69 63 58 62 66 67 68 67 68 67 63 57 51 45 41 37 36 39 39 36
46 50 50 49 54 54 49 49 47 62 53 53 54 56 57 56 55 54 55 57 58 56 51 49 53 58 65 69 70 68 78 73 77 77 70 68 68 68 69 67 61 55 51 43 40 36 41 42 38
52 50 50 52 59 52 48 42 50 54 54 54 54 56 58 57 55 55 56 59 58 55 53 55 62 65 70 73 74 74 75 72 77 71 69 65 63 69 71 69 65 59 52 48 44 40 40 43 40
58 56 55 59 60 54 50 43 55 55 54 52 54 55 55 56 54 55 58 59 55 52 55 63 71 73 71 76 77 78 82 81 79 71 65 56 62 66 68 70 68 62 56 51 47 43 42 42 40
65 66 62 59 63 62 59 50 55 57 53 53 55 56 57 59 57 58 59 57 52 53 58 66 72 72 69 72 77 85 85 80 79 74 70 61 60 69 66 69 68 64 58 53 49 46 43 42 43
77 71 66 66 69 70 63 56 60 64 57 56 60 60 61 61 61 61 61 57 49 48 56 66 66 63 66 69 73 86 91 88 91 91 75 64 61 72 69 66 67 64 60 54 51 44 42 43 45
80 78 74 76 78 77 69 61 63 72 65 64 65 67 66 64 64 62 59 52 47 44 57 55 57 56 54 56 70 79 88 91 94 81 77 58 59 69 65 63 65 65 61 57 53 47 44 44 45
85 83 81 82 83 77 73 67 69 75 70 67 67 67 69 66 65 64 59 50 43 41 49 44 46 40 39 44 59 64 85 91 91 81 72 64 59 58 60 62 64 64 61 57 54 52 48 46 48
84 87 89 88 87 82 76 72 74 76 75 71 70 69 69 67 66 65 58 48 42 36 31 39 40 34 32 32 44 59 72 81 61 57 55 58 49 45 52 54 60 63 60 59 56 55 53 50 50
92 92 90 91 92 88 85 78 77 83 77 76 75 73 70 69 69 67 61 51 41 27 40 34 37 38 35 37 43 58 48 54 61 58 59 48 44 47 50 51 55 61 60 58 57 53 54 50 54
82 89 89 91 93 89 86 85 82 85 83 83 80 78 74 71 71 70 66 59 46 32 44 43 42 43 45 43 48 54 56 67 64 56 59 51 52 54 53 56 57 55 58 57 55 53 49 55 54
89 94 91 88 87 86 86 87 83 86 88 87 86 82 78 74 72 71 66 61 49 37 53 55 47 47 42 50 59 55 57 69 67 58 54 55 55 51 54 57 57 55 54 57 54 53 52 60 58
87 93 95 94 90 79 82 82 78 82 84 88 88 87 84 78 74 72 68 61 52 37 64 61 55 50 53 53 60 58 59 63 61 60 61 59 59 55 54 57 61 59 62 60 56 54 59 60 61
96 97 99 98 94 87 84 78 75 80 83 83 86 85 84 80 74 68 65 55 52 44 67 72 65 54 64 62 62 66 71 66 64 61 56 57 55 56 57 62 62 64 63 60 61 64 63 65 65
97 99 94 99 98 94 88 81 79 81 80 80 84 86 87 84 77 69 64 56 52 48 66 79 74 70 66 64 65 72 65 68 61 64 67 60 57 55 55 56 68 65 63 65 63 64 66 66 65
94 93 97 101 97 93 88 87 87 82 82 78 77 80 84 85 82 75 70 62 54 53 57 85 88 79 72 74 75 76 73 72 75 74 67 61 58 56 56 57 60 62 65 65 72 73 75 73 70
95 97 96 98 99 94 91 91 90 87 85 84 80 74 72 72 73 74 73 70 62 62 63 81 92 92 81 79 78 73 80 80 81 75 70 71 70 63 59 64 67 67 69 71 70 70 72 70 69
89 94 97 99 100 96 92 91 90 91 93 88 84 80 77 72 70 66 60 66 71 69 72 73 87 100 92 91 86 81 80 78 85 74 67 68 69 67 70 70 67 65 68 71 72 73 74 73 74
Wind_Direction
238 239 239 239 239 238 237 241 240 240 241 241 239 232 231 233 237 238 239 237 237 234 236 235 236 237 237 237 239 241 244 246 246 245 243 239 239 245 247 247 249 252 254 255 265 270 276 280 290
238 239 239 240 239 238 238 240 241 239 240 241 240 237 234 234 239 239 238 239 238 237 232 237 237 237 239 239 239 240 242 244 244 245 247 242 242 244 249 251 254 254 258 260 263 266 271 282 286
239 239 239 239 240 239 239 240 242 241 240 242 244 240 237 235 234 233 238 241 241 240 238 238 238 237 236 238 241 242 241 239 240 240 246 250 245 244 247 251 254 259 259 261 267 263 268 274 278
240 240 241 242 242 242 241 242 242 242 243 242 243 245 241 236 237 233 235 241 243 242 240 237 239 238 238 238 240 240 241 240 239 237 239 246 250 252 247 249 252 255 257 260 261 263 266 270 275
243 243 243 243 241 239 240 240 240 239 238 238 240 241 243 237 230 235 234 238 240 242 242 241 240 241 238 237 238 239 241 242 239 238 236 239 247 249 253 250 250 253 258 258 258 264 268 275 277
243 242 241 241 239 237 234 235 236 235 233 234 234 236 238 236 230 230 228 230 235 238 240 242 240 241 242 239 238 240 241 240 241 241 238 236 239 247 249 251 251 250 254 261 265 265 272 274 279
241 241 239 237 235 233 232 231 235 236 233 231 230 236 240 235 235 230 229 223 230 236 236 237 241 240 239 242 239 239 241 242 241 240 240 238 235 239 247 249 252 253 253 259 266 271 276 280 286
241 241 238 234 235 233 230 232 233 234 235 233 232 239 245 238 233 232 233 227 226 233 236 231 234 240 241 240 242 242 240 240 241 241 239 238 239 235 240 245 249 252 254 259 266 272 275 278 286
245 241 238 235 237 235 233 230 232 235 237 237 235 241 246 240 236 233 232 233 229 233 238 239 234 233 238 240 246 242 243 242 239 241 240 238 238 238 236 241 246 250 252 254 258 262 266 268 276
247 246 242 241 239 238 238 235 233 237 240 240 242 241 245 246 238 242 237 236 238 235 234 240 241 235 235 232 239 245 239 239 241 239 240 239 237 238 237 238 242 246 249 252 260 267 267 266 270
252 250 249 247 243 242 243 240 238 239 243 243 245 249 248 244 244 240 246 246 243 241 240 242 246 235 234 230 232 235 240 235 239 237 238 239 238 235 238 235 239 242 246 249 255 264 263 261 266
253 252 248 249 246 248 251 250 244 243 246 249 252 254 253 248 245 246 243 249 251 248 245 245 245 249 246 237 236 227 232 241 241 238 235 237 237 236 235 236 235 239 242 246 252 261 262 257 262
251 253 250 247 250 247 251 254 250 253 250 253 253 254 256 251 248 247 249 252 255 254 253 251 251 252 252 243 241 231 229 229 242 240 239 234 235 235 234 235 233 236 239 243 249 260 261 257 263
252 251 252 250 251 249 249 249 250 250 250 248 250 253 256 253 249 248 250 255 256 260 258 255 254 254 252 249 244 236 228 230 234 234 235 233 230 233 234 234 234 233 238 241 248 254 256 255 261
253 254 257 258 255 251 250 248 248 248 250 250 249 250 253 251 251 252 253 255 258 262 264 264 259 253 250 245 243 240 238 235 228 230 226 231 232 231 232 233 234 233 236 242 246 252 254 254 261
254 253 253 255 256 255 252 245 252 250 251 249 249 249 251 253 253 255 258 260 264 268 267 268 259 251 244 240 240 237 238 237 232 225 220 227 232 233 231 231 233 233 235 238 244 247 252 252 260
257 252 249 251 258 254 250 247 252 253 250 252 252 250 252 254 256 258 262 266 271 274 274 267 257 252 248 246 237 233 233 232 236 218 222 232 236 233 232 231 232 232 233 237 242 245 247 250 257
252 256 255 252 253 253 251 248 251 254 252 251 254 254 255 258 261 262 265 269 273 279 278 266 261 258 252 247 236 229 225 221 213 222 226 231 235 234 231 231 230 232 232 234 237 240 244 249 255
252 253 252 253 251 251 252 251 251 253 250 251 254 258 259 261 263 266 269 272 275 281 290 269 264 258 253 244 234 225 221 210 213 215 218 224 231 235 230 230 228 231 232 231 235 239 244 249 255
253 252 253 252 252 251 250 249 249 253 253 250 251 253 257 261 263 265 267 269 275 290 286 274 270 260 249 241 224 214 216 206 207 213 217 230 232 232 228 227 226 229 231 231 233 236 240 244 252
256 254 251 250 251 251 248 248 250 252 253 252 251 252 254 258 261 263 267 270 275 295 245 258 253 254 242 226 210 206 210 209 207 205 217 218 214 228 227 227 228 229 230 230 231 235 240 245 251
255 255 254 253 251 249 249 248 250 252 253 254 253 253 253 254 256 261 265 268 272 269 226 228 223 213 202 198 179 198 200 201 206 213 206 217 225 231 230 230 230 230 230 231 231 237 238 242 249
255 256 254 252 252 250 250 248 248 251 252 252 253 252 252 252 255 259 262 265 264 235 215 204 215 213 192 204 195 192 193 200 205 214 215 231 231 230 238 235 229 227 231 231 233 237 236 242 251
254 255 253 252 251 250 251 249 247 250 251 251 251 252 253 253 254 256 259 262 258 231 208 202 211 210 202 202 198 201 204 208 218 228 229 229 233 235 234 228 228 226 227 229 231 234 239 243 249
253 252 251 251 250 247 246 247 245 246 249 252 250 250 250 252 253 255 256 258 254 243 211 205 208 203 211 200 198 204 214 216 219 226 229 233 233 229 227 228 227 223 225 232 233 237 239 243 246
248 248 250 251 249 245 244 245 247 248 246 247 252 251 249 249 249 249 252 250 247 236 209 206 204 204 206 208 210 212 208 215 219 222 224 226 225 224 222 228 227 228 231 233 236 236 241 245 250
247 248 244 246 246 244 243 242 243 245 247 247 247 249 249 248 247 246 244 240 238 228 209 200 199 207 208 218 219 213 212 215 212 219 227 223 225 228 227 226 224 229 239 237 240 240 242 248 251
248 248 246 246 247 246 243 242 242 244 245 246 247 249 251 252 250 245 243 232 231 221 214 204 207 207 208 206 206 212 208 214 216 216 216 214 225 224 224 228 228 230 237 234 238 239 242 247 252
244 243 243 243 244 242 240 239 240 241 243 244 244 244 248 250 253 254 246 235 225 218 219 206 204 209 206 209 213 212 216 216 213 219 224 226 228 227 227 227 232 238 240 242 245 246 248 251 253
243 242 242 240 240 239 237 237 237 239 241 243 244 243 241 244 246 246 243 239 227 219 221 217 212 209 207 208 210 213 213 217 220 223 222 224 226 227 227 226 232 238 240 243 246 249 250 252 253